Location: Unspecified
(42.3650°N, 71.1030°W)
Time: 20:32:02
(UTC+00:00)

Transit 4A - All Passes

Search period start: 23 June 2024 00:00
Search period end: 03 July 2024 00:00
Orbit: 871 x 972 km, 66.8° (Epoch: 23 June)

Date Brightness Start Highest point End Pass type
(mag) Time Alt. Az. Time Alt. Az. Time Alt. Az.
23 Jun - 01:35:58 10° SSE 01:40:25 23° ESE 01:44:52 10° ENE visible
23 Jun - 03:20:33 10° SW 03:26:16 57° NW 03:32:02 10° NNE visible
23 Jun - 05:11:11 10° WNW 05:13:56 13° NNW 05:16:41 10° N visible
23 Jun - 10:36:20 10° NNW 10:41:37 32° NE 10:47:00 10° ESE daylight
23 Jun - 12:22:26 10° NW 12:28:07 48° WSW 12:33:56 10° S daylight
24 Jun - 01:44:01 10° S 01:49:13 34° ESE 01:54:25 10° NE visible
24 Jun - 03:29:59 10° WSW 03:35:26 40° NW 03:40:54 10° NNE visible
24 Jun - 05:22:56 10° NNW 05:23:30 10° NNW 05:24:04 10° NNW visible
24 Jun - 09:01:06 10° NNE 09:02:54 11° NNE 09:04:43 10° NE daylight
24 Jun - 10:45:09 10° NNW 10:50:50 45° NE 10:56:38 10° SE daylight
24 Jun - 12:31:46 10° NW 12:36:59 32° WSW 12:42:18 10° S daylight
25 Jun - 01:52:28 10° S 01:58:05 52° ESE 02:03:43 10° NE visible
25 Jun - 03:39:40 10° WSW 03:44:40 29° NW 03:49:42 10° NNE visible
25 Jun - 09:09:10 10° N 09:12:27 15° NE 09:15:45 10° ENE daylight
25 Jun - 10:54:03 10° NNW 10:59:58 64° NE 11:06:01 10° SE daylight
25 Jun - 12:41:23 10° WNW 12:45:47 22° WSW 12:50:16 10° SSW daylight
26 Jun - 00:20:47 10° ESE 00:21:44 10° E 00:22:40 10° E daylight
26 Jun - 02:01:13 10° SSW 02:07:02 77° ESE 02:12:51 10° NNE visible
26 Jun - 03:49:37 10° W 03:53:59 21° NW 03:58:24 10° N visible
26 Jun - 09:17:40 10° N 09:21:54 20° NE 09:26:10 10° E daylight
26 Jun - 11:03:01 10° NNW 11:09:01 90° WSW 11:15:09 10° SSE daylight
26 Jun - 12:51:35 10° WNW 12:54:32 14° WSW 12:57:30 10° SW daylight
27 Jun - 00:26:49 10° SE 00:30:25 17° ESE 00:34:01 10° ENE daylight
27 Jun - 02:10:13 10° SW 02:16:02 74° WNW 02:21:53 10° NNE visible
27 Jun - 03:59:53 10° WNW 04:03:24 16° NW 04:06:58 10° N visible
27 Jun - 09:26:19 10° N 09:31:16 26° NE 09:36:16 10° E daylight
27 Jun - 11:12:07 10° NW 11:18:00 63° WSW 11:24:02 10° SSE daylight
28 Jun - 00:34:27 10° SSE 00:39:11 26° ESE 00:43:53 10° NE daylight
28 Jun - 02:19:29 10° SW 02:25:08 51° NW 02:30:49 10° NNE visible
28 Jun - 04:10:36 10° NW 04:12:55 12° NNW 04:15:14 10° N visible
28 Jun - 09:35:05 10° NNW 09:40:32 36° NE 09:46:04 10° ESE daylight
28 Jun - 11:21:19 10° NW 11:26:55 42° WSW 11:32:38 10° S daylight
29 Jun - 00:42:38 10° S 00:48:00 39° ESE 00:53:21 10° NE daylight
29 Jun - 02:28:59 10° WSW 02:34:19 36° NW 02:39:41 10° NNE visible
29 Jun - 07:59:32 10° N 08:01:55 12° NNE 08:04:18 10° NE visible
29 Jun - 09:43:56 10° NNW 09:49:43 50° NE 09:55:37 10° SE daylight
29 Jun - 11:30:44 10° NW 11:35:46 29° WSW 11:40:53 10° SSW daylight
30 Jun - 00:51:11 10° SSW 00:56:53 58° ESE 01:02:35 10° NE visible
30 Jun - 02:38:44 10° WSW 02:43:34 26° NW 02:48:27 10° NNE visible
30 Jun - 08:07:49 10° N 08:11:25 16° NE 08:15:04 10° ENE visible
30 Jun - 09:52:51 10° NNW 09:58:49 71° ENE 10:04:56 10° SE daylight
30 Jun - 11:40:28 10° WNW 11:44:33 19° WSW 11:48:41 10° SSW daylight
30 Jun - 23:18:15 10° SE 23:20:27 12° ESE 23:22:39 10° E daylight
01 Jul - 01:00:01 10° SSW 01:05:51 86° ESE 01:11:42 10° NNE visible
01 Jul - 02:48:46 10° W 02:52:56 20° NW 02:57:07 10° N visible
01 Jul - 08:16:21 10° N 08:20:50 21° NE 08:25:22 10° E visible
01 Jul - 10:01:52 10° NNW 10:07:51 81° WSW 10:13:59 10° SSE daylight
01 Jul - 11:51:02 10° W 11:53:16 12° WSW 11:55:30 10° WSW daylight
01 Jul - 23:25:09 10° SSE 23:29:09 19° ESE 23:33:10 10° ENE daylight
02 Jul - 01:09:06 10° SW 01:14:53 66° WNW 01:20:42 10° NNE visible
02 Jul - 02:59:08 10° WNW 03:02:22 15° NW 03:05:37 10° N visible
02 Jul - 08:25:03 10° NNW 08:30:10 29° NE 08:35:22 10° ESE visible
02 Jul - 10:10:58 10° NW 10:16:49 56° WSW 10:22:47 10° S daylight
02 Jul - 23:32:59 10° SSE 23:37:56 29° ESE 23:42:52 10° NE daylight
